This is the latest recevied weather packets stored in our database for station/object K4AXV-13. If no packets are shown the sender has not sent any weather packets the latest 10 day(s).
| Time | Temp. | Humidity | Pressure | Rain* | Wind** | Luminosity | Snow |
|---|---|---|---|---|---|---|---|
| 1777506838 | 24.44° C | - | - | 0 mm | 1.34 m/s, 248° | - | - |
| 1777506539 | 24.44° C | - | - | 0 mm | 0 m/s | - | - |
| 1777506237 | 25° C | - | - | 0 mm | 0.89 m/s, 235° | - | - |
| 1777505636 | 25° C | - | - | 0 mm | 0 m/s | - | - |
| 1777505337 | 25.56° C | - | - | 0 mm | 0 m/s | - | - |
| 1777505035 | 25.56° C | - | - | 0 mm | 0.45 m/s, 205° | - | - |
| 1777504737 | 25.56° C | - | - | 0 mm | 0.89 m/s, 281° | - | - |
| 1777504434 | 25.56° C | - | - | 0 mm | 0 m/s | - | - |
| 1777504135 | 25.56° C | - | - | 0 mm | 0.89 m/s, 287° | - | - |
| 1777503833 | 25.56° C | - | - | 0 mm | 0.89 m/s, 325° | - | - |
| 1777503534 | 26.11° C | - | - | 0 mm | 0 m/s | - | - |
| 1777503233 | 26.11° C | - | - | 0 mm | 0.89 m/s, 340° | - | - |
| 1777502934 | 26.11° C | - | - | 0 mm | 0 m/s | - | - |
| 1777502632 | 26.11° C | - | - | 0 mm | 0 m/s | - | - |
| 1777502333 | 26.67° C | - | - | 0 mm | 0.89 m/s, 340° | - | - |
| 1777502031 | 26.67° C | - | - | 0 mm | 1.34 m/s, 333° | - | - |
| 1777501732 | 26.11° C | - | - | 0 mm | 0 m/s | - | - |
| 1777500830 | 26.67° C | - | - | 0 mm | 1.34 m/s, 338° | - | - |
| 1777500531 | 26.67° C | - | - | 0 mm | 0.45 m/s, 266° | - | - |
| 1777500229 | 26.67° C | - | - | 0 mm | 0.89 m/s, 343° | - | - |
| 1777499931 | 27.22° C | - | - | 0 mm | 2.24 m/s, 291° | - | - |
| 1777499330 | 26.67° C | - | - | 0 mm | 1.79 m/s, 204° | - | - |
| 1777498729 | 26.67° C | - | - | 0 mm | 0 m/s | - | - |
| 1777498129 | 26.67° C | - | - | 0 mm | 0.89 m/s, 280° | - | - |
| 1777497528 | 26.67° C | - | - | 0 mm | 1.34 m/s, 249° | - | - |
* Rain latest hour (hover to see other rain measurements)
** Current wind speed in m/s (hover to see current wind gust speed)